Location: Auckland
(36.8670°S, 174.7670°E)
Time: 16:54:53
(UTC+12:00)

Vanguard 3 - Visible Passes

Search period start: 24 July 2019 00:00
Search period end: 03 August 2019 00:00
Orbit: 507 x 3264 km, 33.4° (Epoch: 22 July)

Date Brightness Start Highest point End Pass type
(mag) Time Alt. Az. Time Alt. Az. Time Alt. Az.
24 Jul 8.1 18:36:37 10° W 18:41:13 32° NNW 18:44:42 10° NE visible
25 Jul 8.9 19:36:12 10° WNW 19:38:28 14° NNW 19:40:09 11° N visible
26 Jul 8.5 18:20:23 10° W 18:25:19 30° NNW 18:28:54 10° NE visible
27 Jul 9.3 19:20:42 10° WNW 19:22:25 12° NW 19:24:00 10° NNW visible
28 Jul 9.0 18:04:02 10° W 18:09:20 27° NNW 18:13:04 10° NNE visible
29 Jul 9.8 19:05:39 10° NW 19:06:18 10° NW 19:06:55 10° NW visible
